Total_Precipitation_Accumulation
0.51 0.40 0.44 0.44 0.34 0.41 0.66 0.65 0.65 0.38 0.26 0.26 0.24 0.20 0.15 0.14 0.11 0.09 0.07 0.06 0.06 0.06 0.06 0.06 0.05 0.05 0.05 0.06 0.07 0.08 0.10 0.11 0.11 0.12 0.14 0.15 0.16 0.16 0.15 0.14 0.12 0.13 0.14 0.14
0.52 0.32 0.32 0.35 0.28 0.32 0.40 0.41 0.45 0.36 0.31 0.22 0.21 0.18 0.16 0.16 0.13 0.09 0.08 0.06 0.05 0.05 0.06 0.05 0.05 0.06 0.06 0.06 0.07 0.08 0.10 0.12 0.12 0.13 0.14 0.14 0.16 0.16 0.16 0.16 0.17 0.16 0.17 0.18
0.46 0.25 0.33 0.38 0.30 0.34 0.37 0.33 0.38 0.41 0.33 0.20 0.20 0.18 0.17 0.16 0.12 0.09 0.07 0.06 0.04 0.04 0.05 0.05 0.05 0.06 0.08 0.08 0.08 0.11 0.12 0.13 0.14 0.17 0.19 0.17 0.18 0.21 0.22 0.24 0.27 0.32 0.34 0.33
0.46 0.33 0.38 0.25 0.18 0.23 0.28 0.30 0.30 0.29 0.22 0.17 0.18 0.18 0.18 0.16 0.13 0.09 0.07 0.05 0.04 0.04 0.04 0.04 0.04 0.05 0.06 0.07 0.09 0.14 0.18 0.20 0.20 0.21 0.25 0.27 0.27 0.30 0.32 0.35 0.41 0.47 0.49 0.48
0.48 0.38 0.22 0.13 0.10 0.16 0.25 0.28 0.18 0.16 0.14 0.11 0.12 0.13 0.13 0.14 0.13 0.10 0.09 0.07 0.05 0.04 0.05 0.05 0.06 0.07 0.07 0.07 0.09 0.16 0.21 0.24 0.24 0.26 0.29 0.34 0.39 0.43 0.43 0.43 0.46 0.47 0.43 0.40
0.47 0.39 0.24 0.13 0.06 0.07 0.20 0.34 0.14 0.10 0.09 0.09 0.11 0.16 0.15 0.13 0.13 0.10 0.09 0.10 0.09 0.08 0.08 0.09 0.11 0.13 0.14 0.15 0.17 0.21 0.22 0.26 0.27 0.29 0.33 0.37 0.42 0.48 0.49 0.47 0.42 0.38 0.32 0.26
0.36 0.33 0.16 0.08 0.04 0.07 0.28 0.40 0.15 0.10 0.09 0.10 0.12 0.13 0.12 0.10 0.09 0.10 0.10 0.11 0.13 0.16 0.17 0.19 0.21 0.23 0.24 0.24 0.25 0.26 0.27 0.30 0.33 0.33 0.36 0.39 0.41 0.41 0.39 0.35 0.29 0.24 0.19 0.15
0.20 0.26 0.17 0.09 0.11 0.18 0.24 0.16 0.12 0.11 0.11 0.14 0.17 0.15 0.12 0.11 0.09 0.09 0.12 0.14 0.16 0.20 0.22 0.25 0.26 0.27 0.29 0.31 0.31 0.30 0.30 0.31 0.33 0.34 0.32 0.28 0.27 0.26 0.23 0.19 0.15 0.12 0.10 0.07
0.14 0.17 0.14 0.12 0.16 0.18 0.17 0.13 0.11 0.10 0.10 0.13 0.19 0.20 0.18 0.15 0.12 0.10 0.11 0.14 0.15 0.17 0.18 0.20 0.24 0.28 0.31 0.31 0.29 0.27 0.26 0.26 0.26 0.23 0.20 0.18 0.15 0.13 0.12 0.10 0.09 0.09 0.08 0.06
0.12 0.12 0.11 0.11 0.13 0.12 0.12 0.11 0.10 0.10 0.11 0.13 0.15 0.18 0.18 0.17 0.15 0.15 0.13 0.11 0.12 0.13 0.13 0.14 0.15 0.18 0.21 0.22 0.21 0.19 0.17 0.16 0.14 0.12 0.11 0.10 0.08 0.07 0.07 0.06 0.06 0.06 0.06 0.06
0.11 0.08 0.07 0.07 0.07 0.07 0.07 0.07 0.08 0.09 0.10 0.12 0.12 0.15 0.17 0.17 0.15 0.15 0.14 0.12 0.10 0.09 0.09 0.09 0.09 0.10 0.11 0.12 0.11 0.10 0.10 0.09 0.08 0.07 0.07 0.07 0.07 0.08 0.08 0.06 0.06 0.06 0.06 0.06
0.13 0.08 0.09 0.08 0.05 0.04 0.04 0.04 0.05 0.07 0.09 0.09 0.10 0.14 0.15 0.14 0.13 0.12 0.14 0.14 0.11 0.10 0.09 0.08 0.08 0.08 0.08 0.08 0.08 0.07 0.07 0.07 0.07 0.06 0.06 0.07 0.07 0.08 0.10 0.09 0.09 0.07 0.06 0.06
0.10 0.07 0.06 0.05 0.04 0.04 0.03 0.03 0.03 0.04 0.06 0.07 0.07 0.09 0.11 0.12 0.13 0.12 0.12 0.11 0.10 0.09 0.09 0.08 0.08 0.09 0.08 0.07 0.07 0.07 0.06 0.06 0.07 0.08 0.08 0.07 0.07 0.07 0.07 0.08 0.08 0.07 0.06 0.06
0.05 0.04 0.04 0.03 0.04 0.04 0.03 0.03 0.03 0.03 0.04 0.05 0.07 0.07 0.08 0.09 0.11 0.12 0.13 0.13 0.12 0.10 0.09 0.09 0.08 0.07 0.06 0.06 0.06 0.07 0.07 0.07 0.07 0.06 0.07 0.07 0.07 0.06 0.06 0.06 0.06 0.06 0.06 0.07
0.04 0.04 0.04 0.03 0.03 0.03 0.04 0.03 0.03 0.04 0.04 0.05 0.06 0.07 0.08 0.09 0.12 0.14 0.13 0.12 0.13 0.12 0.10 0.08 0.08 0.07 0.06 0.05 0.06 0.06 0.06 0.07 0.07 0.07 0.07 0.06 0.06 0.06 0.06 0.06 0.07 0.06 0.06 0.07
0.05 0.04 0.05 0.04 0.04 0.04 0.04 0.04 0.04 0.05 0.06 0.06 0.08 0.09 0.10 0.11 0.13 0.15 0.14 0.13 0.12 0.12 0.11 0.09 0.08 0.07 0.07 0.07 0.07 0.06 0.06 0.08 0.08 0.08 0.07 0.07 0.07 0.06 0.06 0.06 0.07 0.07 0.06 0.06
0.07 0.06 0.06 0.06 0.05 0.05 0.05 0.05 0.05 0.05 0.06 0.07 0.09 0.11 0.11 0.12 0.14 0.15 0.15 0.14 0.13 0.12 0.11 0.09 0.08 0.07 0.07 0.07 0.08 0.08 0.08 0.09 0.11 0.09 0.07 0.07 0.07 0.07 0.08 0.08 0.08 0.07 0.06 0.08
0.08 0.09 0.09 0.09 0.09 0.08 0.07 0.07 0.07 0.07 0.07 0.08 0.08 0.08 0.10 0.12 0.13 0.15 0.14 0.13 0.13 0.13 0.11 0.10 0.09 0.09 0.09 0.09 0.09 0.09 0.10 0.10 0.10 0.09 0.08 0.08 0.09 0.09 0.08 0.08 0.07 0.07 0.06 0.08
0.08 0.11 0.12 0.11 0.10 0.10 0.10 0.09 0.10 0.10 0.09 0.09 0.10 0.10 0.11 0.11 0.12 0.13 0.14 0.14 0.13 0.13 0.13 0.12 0.13 0.11 0.10 0.11 0.13 0.11 0.10 0.10 0.11 0.11 0.11 0.12 0.12 0.09 0.08 0.08 0.08 0.08 0.08 0.08
0.12 0.13 0.15 0.15 0.14 0.13 0.13 0.12 0.11 0.11 0.11 0.11 0.11 0.11 0.12 0.13 0.13 0.13 0.13 0.14 0.14 0.14 0.14 0.14 0.14 0.11 0.11 0.12 0.16 0.11 0.10 0.11 0.12 0.13 0.13 0.13 0.12 0.10 0.10 0.10 0.10 0.10 0.09 0.09
0.14 0.15 0.16 0.17 0.17 0.17 0.16 0.15 0.13 0.12 0.11 0.10 0.11 0.10 0.11 0.12 0.12 0.12 0.12 0.12 0.12 0.12 0.12 0.15 0.14 0.12 0.13 0.15 0.19 0.14 0.13 0.13 0.14 0.14 0.14 0.14 0.14 0.14 0.13 0.13 0.12 0.12 0.11 0.11
0.15 0.15 0.16 0.17 0.16 0.17 0.16 0.14 0.13 0.13 0.12 0.11 0.11 0.10 0.09 0.10 0.11 0.11 0.11 0.11 0.12 0.14 0.13 0.11 0.11 0.14 0.18 0.21 0.17 0.14 0.15 0.16 0.16 0.16 0.16 0.16 0.16 0.16 0.15 0.15 0.15 0.15 0.14 0.14
0.15 0.14 0.14 0.14 0.14 0.15 0.14 0.13 0.13 0.13 0.13 0.12 0.11 0.11 0.10 0.10 0.11 0.11 0.11 0.10 0.10 0.11 0.10 0.09 0.12 0.16 0.19 0.18 0.15 0.14 0.15 0.17 0.17 0.17 0.16 0.17 0.17 0.18 0.18 0.18 0.17 0.16 0.16 0.15
0.12 0.11 0.11 0.11 0.12 0.12 0.12 0.13 0.13 0.12 0.11 0.11 0.10 0.10 0.10 0.10 0.10 0.10 0.09 0.10 0.10 0.11 0.09 0.10 0.14 0.15 0.16 0.13 0.12 0.14 0.15 0.16 0.17 0.17 0.17 0.18 0.18 0.19 0.18 0.18 0.17 0.15 0.14 0.14
0.09 0.09 0.09 0.09 0.09 0.09 0.10 0.11 0.11 0.11 0.11 0.10 0.09 0.09 0.09 0.09 0.09 0.09 0.09 0.08 0.09 0.10 0.08 0.10 0.12 0.13 0.13 0.11 0.12 0.13 0.14 0.15 0.16 0.18 0.18 0.17 0.17 0.17 0.17 0.16 0.16 0.15 0.14 0.12
0.06 0.06 0.06 0.07 0.07 0.07 0.08 0.10 0.12 0.10 0.09 0.10 0.10 0.09 0.08 0.08 0.08 0.08 0.09 0.09 0.10 0.10 0.09 0.09 0.11 0.12 0.12 0.12 0.12 0.13 0.14 0.14 0.15 0.14 0.14 0.15 0.16 0.17 0.16 0.14 0.13 0.13 0.12 0.11
0.04 0.03 0.04 0.05 0.06 0.06 0.06 0.08 0.10 0.11 0.11 0.10 0.09 0.09 0.08 0.08 0.08 0.09 0.09 0.09 0.10 0.10 0.09 0.09 0.10 0.11 0.12 0.12 0.12 0.12 0.12 0.12 0.12 0.13 0.14 0.14 0.15 0.15 0.14 0.13 0.13 0.12 0.11 0.10